TimeCDT,TemperatureF,Dew PointF,Humidity,Sea Level PressureIn,VisibilityMPH,Wind Direction,Wind SpeedMPH,Gust SpeedMPH,PrecipitationIn,Events,Conditions,WindDirDegrees,DateUTC
12:15 AM,78.8,50.0,36,29.97,10.0,SSE,19.6,26.5,N/A,,Clear,150,2013-07-05 05:15:00
12:35 AM,77.0,50.0,39,29.97,10.0,SSE,18.4,26.5,N/A,,Clear,150,2013-07-05 05:35:00
12:55 AM,77.0,51.8,41,29.97,10.0,SSE,20.7,27.6,N/A,,Scattered Clouds,150,2013-07-05 05:55:00
1:15 AM,77.0,51.8,41,29.97,10.0,SSE,20.7,26.5,N/A,,Scattered Clouds,150,2013-07-05 06:15:00
1:35 AM,77.0,51.8,41,29.96,10.0,SSE,19.6,26.5,N/A,,Mostly Cloudy,160,2013-07-05 06:35:00
1:55 AM,77.0,51.8,41,29.96,10.0,SSE,19.6,-,N/A,,Scattered Clouds,160,2013-07-05 06:55:00
2:15 AM,77.0,51.8,41,29.96,10.0,SSE,18.4,25.3,N/A,,Clear,160,2013-07-05 07:15:00
2:35 AM,75.2,51.8,44,29.96,10.0,SSE,17.3,24.2,N/A,,Clear,160,2013-07-05 07:35:00
2:55 AM,75.2,51.8,44,29.95,10.0,SSE,18.4,27.6,N/A,,Scattered Clouds,160,2013-07-05 07:55:00
3:15 AM,73.4,53.6,50,29.95,10.0,SSE,18.4,28.8,N/A,,Clear,160,2013-07-05 08:15:00
3:35 AM,73.4,53.6,50,29.94,10.0,South,17.3,24.2,N/A,,Clear,170,2013-07-05 08:35:00
3:55 AM,73.4,53.6,50,29.94,10.0,South,19.6,24.2,N/A,,Clear,170,2013-07-05 08:55:00
4:15 AM,73.4,53.6,50,29.95,10.0,SSE,16.1,23.0,N/A,,Clear,160,2013-07-05 09:15:00
4:35 AM,73.4,53.6,50,29.95,10.0,SSE,13.8,20.7,N/A,,Clear,160,2013-07-05 09:35:00
4:55 AM,71.6,53.6,53,29.95,10.0,SSE,15.0,18.4,N/A,,Clear,150,2013-07-05 09:55:00
5:15 AM,71.6,55.4,57,29.96,10.0,SSE,10.4,16.1,N/A,,Clear,160,2013-07-05 10:15:00
5:35 AM,69.8,55.4,60,29.96,10.0,SSE,11.5,-,N/A,Thunderstorm,Clear,160,2013-07-05 10:35:00
5:55 AM,69.8,55.4,60,29.95,10.0,SSE,10.4,-,N/A,,Clear,160,2013-07-05 10:55:00
6:15 AM,69.8,55.4,60,29.95,10.0,SSE,11.5,-,N/A,,Clear,160,2013-07-05 11:15:00
6:35 AM,69.8,55.4,60,29.95,10.0,SSE,13.8,-,N/A,,Clear,160,2013-07-05 11:35:00
6:55 AM,69.8,55.4,60,29.95,10.0,SSE,12.7,-,N/A,,Clear,160,2013-07-05 11:55:00
7:15 AM,69.8,57.2,64,29.95,10.0,SSE,13.8,19.6,N/A,,Clear,150,2013-07-05 12:15:00
7:35 AM,69.8,57.2,64,29.95,10.0,SSE,15.0,-,N/A,,Clear,160,2013-07-05 12:35:00
7:55 AM,71.6,57.2,60,29.96,10.0,South,17.3,20.7,N/A,,Clear,170,2013-07-05 12:55:00
8:15 AM,71.6,55.4,57,29.96,10.0,South,17.3,23.0,N/A,,Clear,170,2013-07-05 13:15:00
8:35 AM,73.4,55.4,53,29.96,10.0,South,19.6,27.6,N/A,,Clear,170,2013-07-05 13:35:00
8:55 AM,73.4,55.4,53,29.96,10.0,South,20.7,25.3,N/A,,Clear,180,2013-07-05 13:55:00
9:15 AM,75.2,55.4,50,29.96,10.0,South,18.4,25.3,N/A,,Clear,190,2013-07-05 14:15:00
9:35 AM,78.8,53.6,42,29.96,10.0,South,20.7,27.6,N/A,,Clear,180,2013-07-05 14:35:00
9:55 AM,78.8,53.6,42,29.96,10.0,South,21.9,26.5,N/A,,Clear,180,2013-07-05 14:55:00
10:15 AM,80.6,53.6,39,29.96,10.0,South,20.7,24.2,N/A,,Clear,180,2013-07-05 15:15:00
10:35 AM,82.4,51.8,35,29.96,10.0,South,20.7,-,N/A,,Clear,190,2013-07-05 15:35:00
10:55 AM,84.2,51.8,33,29.96,10.0,SSW,19.6,25.3,N/A,,Clear,200,2013-07-05 15:55:00
11:15 AM,86.0,51.8,31,29.95,10.0,South,20.7,24.2,N/A,,Clear,190,2013-07-05 16:15:00
11:35 AM,86.0,51.8,31,29.95,10.0,South,19.6,25.3,N/A,,Clear,190,2013-07-05 16:35:00
11:55 AM,87.8,51.8,29,29.95,10.0,South,17.3,25.3,N/A,,Clear,190,2013-07-05 16:55:00
12:15 PM,87.8,51.8,29,29.95,10.0,South,18.4,26.5,N/A,,Clear,170,2013-07-05 17:15:00
12:35 PM,89.6,50.0,26,29.95,10.0,South,16.1,28.8,N/A,,Clear,180,2013-07-05 17:35:00
12:55 PM,89.6,50.0,26,29.94,10.0,SSW,20.7,25.3,N/A,,Scattered Clouds,200,2013-07-05 17:55:00
1:15 PM,91.4,50.0,24,29.93,10.0,SSW,19.6,25.3,N/A,,Clear,200,2013-07-05 18:15:00
1:35 PM,93.2,50.0,23,29.93,10.0,South,18.4,27.6,N/A,,Clear,190,2013-07-05 18:35:00
1:55 PM,95.0,50.0,22,29.92,10.0,South,23.0,29.9,N/A,,Clear,180,2013-07-05 18:55:00
2:15 PM,93.2,50.0,23,29.92,10.0,South,19.6,27.6,N/A,,Clear,180,2013-07-05 19:15:00
2:35 PM,95.0,48.2,20,29.91,10.0,South,15.0,26.5,N/A,,Clear,190,2013-07-05 19:35:00
2:55 PM,95.0,48.2,20,29.90,10.0,South,18.4,25.3,N/A,,Clear,170,2013-07-05 19:55:00
3:15 PM,95.0,46.4,19,29.90,10.0,South,18.4,31.1,N/A,,Clear,190,2013-07-05 20:15:00
3:35 PM,96.8,46.4,18,29.90,10.0,South,19.6,26.5,N/A,,Clear,180,2013-07-05 20:35:00
3:55 PM,96.8,46.4,18,29.89,10.0,South,16.1,26.5,N/A,,Clear,190,2013-07-05 20:55:00
4:15 PM,96.8,44.6,17,29.88,10.0,South,21.9,28.8,N/A,,Clear,190,2013-07-05 21:15:00
4:35 PM,96.8,44.6,17,29.88,10.0,South,19.6,23.0,N/A,,Clear,170,2013-07-05 21:35:00
4:55 PM,96.8,44.6,17,29.87,10.0,South,17.3,23.0,N/A,,Clear,190,2013-07-05 21:55:00
5:15 PM,96.8,44.6,17,29.86,10.0,South,13.8,27.6,N/A,,Clear,170,2013-07-05 22:15:00
5:35 PM,96.8,44.6,17,29.86,10.0,SSE,25.3,31.1,N/A,,Clear,160,2013-07-05 22:35:00
5:55 PM,96.8,42.8,16,29.85,10.0,South,19.6,26.5,N/A,,Clear,190,2013-07-05 22:55:00
6:15 PM,96.8,42.8,16,29.85,10.0,South,18.4,25.3,N/A,,Clear,190,2013-07-05 23:15:00
6:35 PM,96.8,42.8,16,29.85,10.0,South,17.3,-,N/A,,Clear,180,2013-07-05 23:35:00
6:55 PM,96.8,42.8,16,29.85,10.0,South,17.3,21.9,N/A,,Clear,190,2013-07-05 23:55:00
7:15 PM,95.0,42.8,16,29.85,10.0,South,16.1,24.2,N/A,,Clear,190,2013-07-06 00:15:00
7:35 PM,95.0,42.8,16,29.85,10.0,South,18.4,23.0,N/A,,Clear,180,2013-07-06 00:35:00
7:55 PM,95.0,42.8,16,29.85,10.0,South,15.0,-,N/A,,Clear,170,2013-07-06 00:55:00
8:15 PM,91.4,44.6,20,29.86,10.0,South,12.7,18.4,N/A,,Clear,170,2013-07-06 01:15:00
8:35 PM,89.6,44.6,21,29.86,10.0,South,11.5,-,N/A,,Clear,170,2013-07-06 01:35:00
8:55 PM,89.6,44.6,21,29.86,10.0,SSE,11.5,-,N/A,,Clear,160,2013-07-06 01:55:00
9:15 PM,87.8,42.8,21,29.86,10.0,SSE,11.5,-,N/A,,Clear,160,2013-07-06 02:15:00
9:35 PM,87.8,42.8,21,29.87,10.0,SSE,11.5,-,N/A,,Clear,160,2013-07-06 02:35:00
9:55 PM,86.0,42.8,22,29.88,10.0,SSE,9.2,-,N/A,,Clear,150,2013-07-06 02:55:00
10:15 PM,82.4,44.6,26,29.89,10.0,SE,10.4,-,N/A,,Clear,130,2013-07-06 03:15:00
10:35 PM,82.4,50.0,32,29.89,10.0,SE,16.1,23.0,N/A,,Clear,140,2013-07-06 03:35:00
10:55 PM,82.4,51.8,35,29.90,10.0,SE,17.3,24.2,N/A,,Clear,140,2013-07-06 03:55:00
11:15 PM,82.4,51.8,35,29.90,10.0,SSE,18.4,25.3,N/A,,Clear,150,2013-07-06 04:15:00
11:35 PM,80.6,51.8,37,29.90,10.0,SSE,20.7,27.6,N/A,,Clear,150,2013-07-06 04:35:00
11:55 PM,80.6,51.8,37,29.90,10.0,SSE,20.7,28.8,N/A,,Clear,150,2013-07-06 04:55:00